ITY331 LIRN-LIMF

Flight info

Callsign ITY331
Flight time 1h 14m
Altitude 34000
Route VEXUV DCT PNZ DCT RIFFI DCT ELVIN DCT LUNAK DCT RAVAL DCT MEDAL DCT GILIO DCT ELB DCT BAKRO DCT EVROG DCT UNITA DCT LAGEN
Aircraft A320/M-SDE3FGHIRWY/LB1

Departure

Time 2026-04-30 12:50
Airport Naples International Airport (LIRN)

Arrival

Time 2026-04-30 14:05
Airport Turin Airport (LIMF)
Time Latitude Longitude Altitude Speed Heading
2026-04-30 12:29 40.87880 14.28285 291 ft 0 kts 187°
2026-04-30 12:43 40.87882 14.28285 291 ft 2 kts 187°
2026-04-30 12:43 40.87899 14.28288 295 ft 3 kts 187°
2026-04-30 12:43 40.87910 14.28290 290 ft 3 kts 187°
2026-04-30 12:43 40.87928 14.28292 295 ft 2 kts 205°
2026-04-30 12:44 40.87939 14.28308 295 ft 2 kts 278°
2026-04-30 12:44 40.87939 14.28310 290 ft 0 kts 278°
2026-04-30 12:47 40.87939 14.28309 290 ft 1 kts 279°
2026-04-30 12:47 40.87945 14.28281 293 ft 6 kts 285°
2026-04-30 12:47 40.87958 14.28209 294 ft 10 kts 280°
2026-04-30 12:47 40.87956 14.28127 292 ft 11 kts 250°
2026-04-30 12:48 40.87907 14.28038 300 ft 11 kts 231°
2026-04-30 12:48 40.87866 14.27974 296 ft 8 kts 231°
2026-04-30 12:48 40.87854 14.27920 301 ft 6 kts 272°
2026-04-30 12:48 40.87878 14.27869 299 ft 7 kts 320°
2026-04-30 12:49 40.87914 14.27832 302 ft 8 kts 322°
2026-04-30 12:49 40.87971 14.27784 302 ft 10 kts 348°
2026-04-30 12:49 40.88021 14.27843 297 ft 13 kts 58°
2026-04-30 12:49 40.88146 14.28108 293 ft 69 kts 59°
2026-04-30 12:50 40.88522 14.28899 272 ft 132 kts 58°
2026-04-30 12:50 40.89035 14.30010 746 ft 140 kts 60°
2026-04-30 12:50 40.89561 14.31105 1454 ft 144 kts 57°
2026-04-30 12:50 40.90116 14.32306 1915 ft 165 kts 58°
2026-04-30 12:51 40.90762 14.33689 2302 ft 187 kts 57°
2026-04-30 12:51 40.91474 14.35202 2828 ft 198 kts 57°
2026-04-30 12:51 40.92210 14.36762 3619 ft 200 kts 56°
2026-04-30 12:51 40.92949 14.38322 4488 ft 202 kts 55°
2026-04-30 12:52 40.93875 14.39730 5225 ft 205 kts 37°
2026-04-30 12:52 40.95154 14.40670 5730 ft 222 kts 14°
2026-04-30 12:52 40.96759 14.40632 6114 ft 247 kts 341°
2026-04-30 12:52 40.98138 14.39213 6765 ft 263 kts 305°
2026-04-30 12:53 40.98790 14.36913 7613 ft 270 kts 287°
2026-04-30 12:53 40.99173 14.34465 8585 ft 270 kts 283°
2026-04-30 12:53 40.99477 14.32025 9443 ft 274 kts 283°
2026-04-30 12:53 40.99772 14.29514 10273 ft 278 kts 281°
2026-04-30 12:54 41.00083 14.26898 10671 ft 298 kts 282°
2026-04-30 12:54 41.00435 14.24099 11041 ft 316 kts 281°
2026-04-30 12:54 41.00815 14.21196 11711 ft 322 kts 282°
2026-04-30 12:54 41.01208 14.18264 12487 ft 325 kts 282°
2026-04-30 12:55 41.01610 14.15311 13308 ft 327 kts 282°
2026-04-30 12:55 41.02016 14.12339 14102 ft 329 kts 282°
2026-04-30 12:55 41.02418 14.09386 14801 ft 330 kts 282°
2026-04-30 12:55 41.02830 14.06366 15479 ft 333 kts 282°
2026-04-30 12:56 41.03242 14.03326 16169 ft 336 kts 281°
2026-04-30 12:56 41.03656 14.00262 16856 ft 338 kts 281°
2026-04-30 12:56 41.04064 13.97221 17528 ft 340 kts 281°
2026-04-30 12:56 41.04479 13.94119 18200 ft 343 kts 281°
2026-04-30 12:57 41.04894 13.90992 18802 ft 345 kts 281°
2026-04-30 12:57 41.05313 13.87847 19400 ft 347 kts 281°
2026-04-30 12:57 41.05734 13.84683 19998 ft 349 kts 281°
2026-04-30 12:57 41.06157 13.81499 20556 ft 352 kts 281°
2026-04-30 12:58 41.06582 13.78296 21146 ft 354 kts 281°
2026-04-30 12:58 41.07003 13.75115 21741 ft 355 kts 281°
2026-04-30 12:58 41.07432 13.71870 22325 ft 357 kts 281°
2026-04-30 12:58 41.07864 13.68609 22896 ft 359 kts 281°
2026-04-30 12:59 41.08296 13.65333 23457 ft 362 kts 281°
2026-04-30 12:59 41.08728 13.62023 23961 ft 364 kts 281°
2026-04-30 12:59 41.09161 13.58703 24407 ft 366 kts 281°
2026-04-30 12:59 41.09595 13.55372 24849 ft 368 kts 281°
2026-04-30 13:00 41.10032 13.52025 25281 ft 369 kts 281°
2026-04-30 13:00 41.10470 13.48661 25706 ft 371 kts 281°
2026-04-30 13:00 41.10911 13.45280 26117 ft 373 kts 281°
2026-04-30 13:00 41.11349 13.41919 26517 ft 375 kts 281°
2026-04-30 13:01 41.11792 13.38493 26914 ft 376 kts 281°
2026-04-30 13:01 41.12234 13.35060 27305 ft 378 kts 281°
2026-04-30 13:01 41.12676 13.31603 27692 ft 380 kts 281°
2026-04-30 13:01 41.13118 13.28137 28069 ft 382 kts 281°
2026-04-30 13:02 41.13560 13.24649 28442 ft 384 kts 281°
2026-04-30 13:02 41.14004 13.21148 28813 ft 386 kts 281°
2026-04-30 13:02 41.14452 13.17628 29170 ft 387 kts 281°
2026-04-30 13:02 41.14902 13.14095 29510 ft 389 kts 281°
2026-04-30 13:03 41.15352 13.10546 29819 ft 391 kts 281°
2026-04-30 13:03 41.15803 13.06974 30139 ft 393 kts 281°
2026-04-30 13:03 41.16255 13.03390 30419 ft 394 kts 281°
2026-04-30 13:03 41.16702 12.99832 30680 ft 396 kts 281°
2026-04-30 13:04 41.17156 12.96222 30946 ft 397 kts 281°
2026-04-30 13:04 41.17610 12.92596 31196 ft 398 kts 281°
2026-04-30 13:04 41.18065 12.88971 31449 ft 399 kts 281°
2026-04-30 13:04 41.18519 12.85338 31761 ft 398 kts 281°
2026-04-30 13:05 41.18967 12.81718 32124 ft 396 kts 282°
2026-04-30 13:05 41.19411 12.78119 32486 ft 394 kts 282°
2026-04-30 13:05 41.19851 12.74532 32821 ft 393 kts 282°
2026-04-30 13:06 41.20722 12.67431 33524 ft 390 kts 282°
2026-04-30 13:06 41.21152 12.63884 33889 ft 388 kts 282°
2026-04-30 13:06 41.21575 12.60353 34097 ft 386 kts 282°
2026-04-30 13:07 41.22971 12.53666 34127 ft 371 kts 297°
2026-04-30 13:07 41.26086 12.48250 34125 ft 371 kts 312°
2026-04-30 13:08 41.29693 12.43332 34123 ft 371 kts 311°
2026-04-30 13:08 41.33258 12.38423 34125 ft 371 kts 311°
2026-04-30 13:09 41.36840 12.33484 34116 ft 370 kts 311°
2026-04-30 13:09 41.40417 12.28555 34115 ft 370 kts 311°
2026-04-30 13:10 41.43990 12.23622 34112 ft 369 kts 311°
2026-04-30 13:10 41.47554 12.18689 34107 ft 369 kts 311°
2026-04-30 13:11 41.51121 12.13750 34107 ft 370 kts 311°
2026-04-30 13:11 41.54692 12.08802 34109 ft 370 kts 311°
2026-04-30 13:12 41.58268 12.03850 34111 ft 370 kts 311°
2026-04-30 13:12 41.61832 11.98895 34120 ft 369 kts 311°
2026-04-30 13:13 41.67154 11.91485 34127 ft 370 kts 311°
2026-04-30 13:14 41.72499 11.84011 34138 ft 370 kts 310°
2026-04-30 13:14 41.77802 11.76501 34126 ft 369 kts 310°
2026-04-30 13:15 41.83085 11.69031 34134 ft 369 kts 310°
2026-04-30 13:16 41.86639 11.64035 34114 ft 369 kts 310°
2026-04-30 13:16 41.90163 11.59069 34118 ft 369 kts 310°
2026-04-30 13:17 41.95467 11.51574 34115 ft 368 kts 310°
2026-04-30 13:18 42.00766 11.44063 34120 ft 369 kts 310°
2026-04-30 13:18 42.06032 11.36565 34133 ft 369 kts 310°
2026-04-30 13:19 42.09562 11.31545 34118 ft 369 kts 310°
2026-04-30 13:19 42.13090 11.26520 34122 ft 369 kts 310°
2026-04-30 13:20 42.16611 11.21480 34115 ft 370 kts 310°
2026-04-30 13:20 42.20136 11.16424 34126 ft 370 kts 310°
2026-04-30 13:21 42.23664 11.11363 34129 ft 370 kts 310°
2026-04-30 13:22 42.28930 11.03790 34136 ft 370 kts 310°
2026-04-30 13:22 42.34214 10.96170 34141 ft 370 kts 310°
2026-04-30 13:23 42.39483 10.88544 34137 ft 370 kts 310°
2026-04-30 13:24 42.46519 10.78359 34140 ft 370 kts 310°
2026-04-30 13:25 42.53526 10.68178 34165 ft 370 kts 310°
2026-04-30 13:26 42.62282 10.55410 34128 ft 370 kts 310°
2026-04-30 13:28 42.71059 10.42534 34138 ft 372 kts 309°
2026-04-30 13:28 42.76818 10.35454 34171 ft 376 kts 317°
2026-04-30 13:29 42.84965 10.26465 34162 ft 377 kts 317°
2026-04-30 13:31 42.95138 10.15182 34134 ft 377 kts 317°
2026-04-30 13:32 43.04651 10.04585 34154 ft 379 kts 317°
2026-04-30 13:33 43.12843 9.95438 34162 ft 380 kts 317°
2026-04-30 13:34 43.18999 9.88540 34169 ft 381 kts 317°
2026-04-30 13:35 43.27204 9.79329 34158 ft 383 kts 317°
2026-04-30 13:36 43.35463 9.70022 34168 ft 384 kts 317°
2026-04-30 13:36 43.41662 9.63009 34176 ft 385 kts 317°
2026-04-30 13:37 43.47860 9.55979 34199 ft 385 kts 317°
2026-04-30 13:38 43.54040 9.48960 34198 ft 385 kts 317°
2026-04-30 13:39 43.62321 9.39514 34181 ft 387 kts 317°
2026-04-30 13:40 43.68551 9.32377 34194 ft 388 kts 317°
2026-04-30 13:40 43.72701 9.27606 34197 ft 388 kts 317°
2026-04-30 13:41 43.76854 9.22835 34200 ft 388 kts 317°
2026-04-30 13:41 43.80990 9.18081 34205 ft 388 kts 317°
2026-04-30 13:42 43.85146 9.13288 34197 ft 388 kts 317°
2026-04-30 13:42 43.91375 9.06072 33357 ft 387 kts 317°
2026-04-30 13:43 43.93436 9.03688 32860 ft 385 kts 317°
2026-04-30 13:43 43.95481 9.01318 32336 ft 382 kts 317°
2026-04-30 13:43 43.97516 8.98955 31787 ft 379 kts 318°
2026-04-30 13:43 43.99511 8.96636 31241 ft 376 kts 318°
2026-04-30 13:44 44.01514 8.94305 30702 ft 374 kts 318°
2026-04-30 13:44 44.03507 8.91986 30137 ft 372 kts 318°
2026-04-30 13:44 44.05485 8.89683 29544 ft 369 kts 318°
2026-04-30 13:44 44.07449 8.87397 28973 ft 366 kts 318°
2026-04-30 13:45 44.11322 8.82881 27936 ft 360 kts 319°
2026-04-30 13:45 44.13235 8.80642 27441 ft 358 kts 319°
2026-04-30 13:45 44.15134 8.78412 26932 ft 356 kts 319°
2026-04-30 13:46 44.17023 8.76194 26430 ft 355 kts 319°
2026-04-30 13:46 44.18907 8.73983 25935 ft 353 kts 320°
2026-04-30 13:46 44.20781 8.71780 25445 ft 352 kts 319°
2026-04-30 13:46 44.22589 8.69496 24941 ft 349 kts 316°
2026-04-30 13:47 44.24300 8.67163 24467 ft 347 kts 315°
2026-04-30 13:47 44.25995 8.64763 24017 ft 345 kts 315°
2026-04-30 13:47 44.27672 8.62367 23522 ft 343 kts 315°
2026-04-30 13:47 44.29339 8.59990 22982 ft 341 kts 316°
2026-04-30 13:48 44.31009 8.57628 22419 ft 342 kts 316°
2026-04-30 13:48 44.32691 8.55271 21895 ft 342 kts 316°
2026-04-30 13:48 44.34352 8.52958 21386 ft 341 kts 316°
2026-04-30 13:48 44.36033 8.50622 20882 ft 340 kts 316°
2026-04-30 13:49 44.37714 8.48283 20391 ft 340 kts 316°
2026-04-30 13:49 44.39392 8.45948 19921 ft 340 kts 316°
2026-04-30 13:49 44.41068 8.43615 19483 ft 339 kts 316°
2026-04-30 13:49 44.42735 8.41286 19000 ft 337 kts 316°
2026-04-30 13:50 44.44367 8.38998 18516 ft 325 kts 316°
2026-04-30 13:50 44.47466 8.34648 17480 ft 316 kts 316°
2026-04-30 13:50 44.49027 8.32461 16960 ft 318 kts 316°
2026-04-30 13:51 44.50588 8.30278 16439 ft 313 kts 316°
2026-04-30 13:51 44.52111 8.28141 15949 ft 309 kts 316°
2026-04-30 13:51 44.53633 8.26002 15462 ft 307 kts 316°
2026-04-30 13:51 44.55127 8.23902 14976 ft 304 kts 316°
2026-04-30 13:52 44.56630 8.21782 14505 ft 308 kts 316°
2026-04-30 13:52 44.58145 8.19640 14037 ft 310 kts 316°
2026-04-30 13:52 44.59669 8.17490 13536 ft 311 kts 316°
2026-04-30 13:52 44.61199 8.15333 13021 ft 312 kts 315°
2026-04-30 13:53 44.62734 8.13160 12492 ft 312 kts 315°
2026-04-30 13:53 44.64245 8.11025 11986 ft 302 kts 315°
2026-04-30 13:53 44.65696 8.08969 11501 ft 291 kts 316°
2026-04-30 13:53 44.67100 8.06976 11014 ft 282 kts 315°
2026-04-30 13:54 44.68477 8.05020 10532 ft 281 kts 315°
2026-04-30 13:54 44.69846 8.03075 10049 ft 279 kts 315°
2026-04-30 13:54 44.71211 8.01134 9520 ft 277 kts 316°
2026-04-30 13:54 44.72545 7.99240 8995 ft 277 kts 316°
2026-04-30 13:55 44.73900 7.97320 8478 ft 276 kts 315°
2026-04-30 13:55 44.75255 7.95399 7970 ft 275 kts 315°
2026-04-30 13:55 44.76588 7.93500 7474 ft 271 kts 315°
2026-04-30 13:55 44.77914 7.91611 6986 ft 270 kts 316°
2026-04-30 13:56 44.79231 7.89741 6487 ft 268 kts 316°
2026-04-30 13:56 44.80549 7.87860 5967 ft 268 kts 315°
2026-04-30 13:56 44.81835 7.86019 5455 ft 259 kts 316°
2026-04-30 13:56 44.83081 7.84238 4949 ft 250 kts 316°
2026-04-30 13:57 44.84288 7.82514 4432 ft 245 kts 316°
2026-04-30 13:57 44.85470 7.80826 4036 ft 238 kts 316°
2026-04-30 13:57 44.86604 7.79212 3983 ft 227 kts 316°
2026-04-30 13:57 44.87715 7.77629 3987 ft 227 kts 316°
2026-04-30 13:58 44.88821 7.76047 3985 ft 226 kts 315°
2026-04-30 13:58 44.90946 7.72987 3982 ft 209 kts 316°
2026-04-30 13:58 44.91960 7.71528 3984 ft 207 kts 316°
2026-04-30 13:59 44.92973 7.70072 3985 ft 207 kts 316°
2026-04-30 13:59 44.93988 7.68614 3985 ft 209 kts 316°
2026-04-30 13:59 44.95009 7.67150 3985 ft 209 kts 316°
2026-04-30 13:59 44.96032 7.65686 3986 ft 210 kts 316°
2026-04-30 14:00 44.97145 7.64373 3952 ft 209 kts 332°
2026-04-30 14:00 44.99955 7.63683 4000 ft 210 kts
2026-04-30 14:00 45.01391 7.63778 4003 ft 200 kts
2026-04-30 14:01 45.02751 7.63866 4000 ft 192 kts
2026-04-30 14:01 45.04079 7.63950 3875 ft 191 kts
2026-04-30 14:01 45.05396 7.64033 3632 ft 188 kts
2026-04-30 14:01 45.06705 7.64116 3398 ft 187 kts
2026-04-30 14:02 45.08002 7.64198 3155 ft 184 kts
2026-04-30 14:02 45.09240 7.64276 2909 ft 172 kts
2026-04-30 14:02 45.10404 7.64349 2678 ft 163 kts
2026-04-30 14:02 45.11506 7.64419 2462 ft 158 kts
2026-04-30 14:03 45.12587 7.64487 2255 ft 151 kts
2026-04-30 14:03 45.13625 7.64553 2048 ft 147 kts
2026-04-30 14:03 45.14627 7.64617 1863 ft 143 kts
2026-04-30 14:03 45.15611 7.64679 1664 ft 140 kts
2026-04-30 14:04 45.16579 7.64741 1466 ft 139 kts
2026-04-30 14:04 45.17538 7.64801 1268 ft 138 kts
2026-04-30 14:04 45.18490 7.64865 1096 ft 136 kts
2026-04-30 14:04 45.19415 7.64924 987 ft 125 kts
2026-04-30 14:05 45.20132 7.64973 981 ft 78 kts
2026-04-30 14:05 45.20505 7.64993 984 ft 32 kts
2026-04-30 14:05 45.20720 7.65010 989 ft 28 kts
2026-04-30 14:05 45.20857 7.64954 986 ft 18 kts 304°
2026-04-30 14:06 45.20875 7.64862 991 ft 6 kts 274°
2026-04-30 14:06 45.20841 7.64767 995 ft 7 kts 216°
2026-04-30 14:07 45.20706 7.64738 990 ft 14 kts 181°
2026-04-30 14:07 45.20594 7.64730 989 ft 18 kts 184°
2026-04-30 14:07 45.20447 7.64716 986 ft 24 kts 183°
2026-04-30 14:08 45.20051 7.64696 992 ft 32 kts 182°
2026-04-30 14:08 45.19823 7.64686 985 ft 33 kts 181°
2026-04-30 14:08 45.19365 7.64677 986 ft 24 kts 185°
2026-04-30 14:09 45.19235 7.64666 993 ft 13 kts 182°
2026-04-30 14:09 45.19184 7.64633 992 ft 7 kts 244°
2026-04-30 14:09 45.19168 7.64544 986 ft 0 kts 255°
2026-04-30 14:10 45.19167 7.64540 986 ft 2 kts 256°
2026-04-30 14:10 45.19166 7.64532 986 ft 0 kts 256°